Humidity-temperature Sensor

Selected Measurement Type: Relative Humidity

 
Relative Humidity [%]     6 entries per hour
Showing data from 4/10/2021 (00:00:00 Z) to 4/7/2021 (00:01:00 Z)
Previous Next [ Day | 3-Days | 7-Days ]
First Last
Prev [ Day | 3-Days | 7-Days ] Next
First Last

Start Time:     :
End Time:     :     
Time (in GMT) :00 :50 :40 :30 :20 :10
Previous Next [ Day | 3-Days | 7-Days ]
First Last
Prev [ Day | 3-Days | 7-Days ] Next
First Last


123 => good data
MM => data is determined as missing
-- => data not received/configured
Back to Top Back to Top
4/10/2021 00:00 to 23:10 91.42 91.17 90.86 90.57 89.55 88.17
4/9/2021 23:00 to 22:10 87.29 88.62 88.99 89.59 90.06 91.00
4/9/2021 22:00 to 21:10 92.14 92.73 93.41 93.39 93.06 91.87
4/9/2021 21:00 to 20:10 89.73 88.66 89.75 89.30 88.46 87.76
4/9/2021 20:00 to 19:10 87.04 86.90 87.94 88.87 88.99 87.45
4/9/2021 19:00 to 18:10 85.44 85.50 86.09 86.24 85.76 85.81
4/9/2021 18:00 to 17:10 86.11 86.57 86.73 87.43 87.96 88.21
4/9/2021 17:00 to 16:10 87.35 85.21 84.61 85.09 88.27 88.11
4/9/2021 16:00 to 15:10 88.11 90.04 91.56 92.61 92.71 92.16
4/9/2021 15:00 to 14:10 91.89 91.15 90.18 90.31 90.59 91.68
4/9/2021 14:00 to 13:10 92.57 92.67 93.49 94.52 95.71 95.71
4/9/2021 13:00 to 12:10 95.67 95.96 96.04 96.06 96.27 96.70
4/9/2021 12:00 to 11:10 97.31 97.60 97.99 98.30 98.51 98.69
4/9/2021 11:00 to 10:10 98.53 98.96 98.85 99.20 99.20 99.37
4/9/2021 10:00 to 9:10 99.22 98.98 99.45 99.61 99.61 99.70
4/9/2021 09:00 to 8:10 99.66 99.90 99.72 99.47 99.72 99.76
4/9/2021 08:00 to 7:10 99.76 99.45 99.98 99.37 98.73 98.71
4/9/2021 07:00 to 6:10 98.61 98.61 98.75 98.94 99.20 99.39
4/9/2021 06:00 to 5:10 99.16 99.33 99.18 99.12 99.04 98.77
4/9/2021 05:00 to 4:10 98.69 98.40 97.97 97.64 96.92 96.53
4/9/2021 04:00 to 3:10 96.12 95.59 94.91 94.46 94.33 93.53
4/9/2021 03:00 to 2:10 93.27 93.94 93.74 93.88 93.70 93.45
4/9/2021 02:00 to 1:10 93.12 92.94 92.67 92.94 93.53 93.76
4/9/2021 01:00 to 0:10 94.03 94.03 94.56 95.92 96.29 96.88
4/9/2021 00:00 to 23:10 97.09 97.38 97.77 97.83 97.97 98.09
4/8/2021 23:00 to 22:10 98.42 98.20 97.68 96.72 95.75 94.46
4/8/2021 22:00 to 21:10 93.29 91.70 89.24 89.28 89.77 90.16
4/8/2021 21:00 to 20:10 91.70 91.68 91.60 92.38 92.83 93.12
4/8/2021 20:00 to 19:10 93.22 93.27 92.46 90.98 89.24 87.90
4/8/2021 19:00 to 18:10 87.37 87.59 87.92 88.91 90.49 90.86
4/8/2021 18:00 to 17:10 90.37 90.04 90.49 89.50 88.87 89.36
4/8/2021 17:00 to 16:10 90.86 91.74 91.91 91.44 91.00 91.05
4/8/2021 16:00 to 15:10 91.81 92.55 92.71 92.85 92.75 92.24
4/8/2021 15:00 to 14:10 91.37 90.90 89.59 88.13 87.47 87.04
4/8/2021 14:00 to 13:10 87.37 88.48 88.91 89.75 90.51 91.05
4/8/2021 13:00 to 12:10 92.26 92.77 93.10 93.47 94.27 94.91
4/8/2021 12:00 to 11:10 95.65 96.51 97.21 97.62 97.97 97.77
4/8/2021 11:00 to 10:10 97.72 97.62 97.25 97.23 96.55 95.32
4/8/2021 10:00 to 9:10 93.78 90.88 88.93 90.08 91.37 92.01
4/8/2021 09:00 to 8:10 91.72 91.35 91.60 92.40 93.04 93.06
4/8/2021 08:00 to 7:10 93.82 95.24 95.81 95.61 94.64 94.37
4/8/2021 07:00 to 6:10 94.62 93.49 89.13 85.33 85.25 84.94
4/8/2021 06:00 to 5:10 84.98 85.21 85.35 85.17 85.25 84.24
4/8/2021 05:00 to 4:10 83.30 83.32 83.20 82.66 82.27 82.21
4/8/2021 04:00 to 3:10 81.76 81.39 80.81 80.57 80.38 80.55
4/8/2021 03:00 to 2:10 80.50 80.73 80.71 80.69 80.42 80.26
4/8/2021 02:00 to 1:10 79.93 79.99 79.62 79.27 79.17 78.94
4/8/2021 01:00 to 0:10 78.74 78.61 78.51 78.53 78.41 77.28
4/8/2021 00:00 to 23:10 76.64 76.07 76.27 76.58 76.48 76.87
4/7/2021 23:00 to 22:10 76.83 76.78 77.05 77.07 76.25 76.83
4/7/2021 22:00 to 21:10 76.81 77.71 77.96 78.02 78.37 78.18
4/7/2021 21:00 to 20:10 79.19 79.54 79.95 80.89 81.26 81.41
4/7/2021 20:00 to 19:10 82.00 82.11 82.05 82.76 83.48 83.71
4/7/2021 19:00 to 18:10 83.20 83.28 83.65 84.10 84.78 85.11
4/7/2021 18:00 to 17:10 85.48 85.64 86.01 85.87 86.20 85.83
4/7/2021 17:00 to 16:10 85.87 85.74 86.13 86.50 86.59 86.63
4/7/2021 16:00 to 15:10 87.04 87.51 87.66 87.72 87.82 87.88
4/7/2021 15:00 to 14:10 88.00 88.00 88.29 88.64 88.91 89.57
4/7/2021 14:00 to 13:10 89.53 89.44 89.55 89.42 89.61 89.77
4/7/2021 13:00 to 12:10 89.77 90.02 89.61 89.48 89.26 89.18
4/7/2021 12:00 to 11:10 89.42 89.24 89.13 88.95 88.99 88.87
4/7/2021 11:00 to 10:10 88.68 88.54 88.58 88.52 88.54 88.56
4/7/2021 10:00 to 9:10 88.70 88.68 88.66 88.03 87.10 87.29
4/7/2021 09:00 to 8:10 88.03 88.64 89.50 90.57 91.05 91.87
4/7/2021 08:00 to 7:10 92.44 93.29 93.29 93.16 93.31 93.51
4/7/2021 07:00 to 6:10 93.51 92.94 91.99 90.78 89.87 89.98
4/7/2021 06:00 to 5:10 90.00 90.04 89.65 89.90 89.79 89.55
4/7/2021 05:00 to 4:10 89.46 89.57 89.63 89.67 89.75 89.94
4/7/2021 04:00 to 3:10 90.22 90.90 90.94 90.72 90.72 90.98
4/7/2021 03:00 to 2:10 91.09 91.15 91.23 90.88 90.51 90.49
4/7/2021 02:00 to 1:10 90.45 90.88 91.05 91.09 90.80 90.53
4/7/2021 01:00 to 0:10 89.81 89.79 89.67 89.36 89.26 88.93